Fullerton, CA

1:57 PM PST on January 21, 2017 (GMT -0800)
Fullerton

Weather History for KFUL - March, 2011

Change the Weather History Date:

Saturday, March 12, 2011

  Actual Average Record
Temperature  
Mean Temperature 60 °F 60 °F  
Max Temperature 67 °F 70 °F 95 °F (2007)
Min Temperature 52 °F 50 °F 36 °F (2006)
Degree Days  
Heating Degree Days 5 6  
Month to date heating degree days 55 72  
Since 1 July heating degree days 1023 994  
Cooling Degree Days 0 1  
Month to date cooling degree days 1 8  
Year to date cooling degree days 2 17  
Growing Degree Days 8 (Base 50)    
Moisture  
Dew Point 50 °F    
Average Humidity 77    
Maximum Humidity 93    
Minimum Humidity 60    
Precipitation  
Precipitation 0.00 in 0.06 in 0.02 in (2006)
Month to date precipitation 0.08 1.46  
Year to date precipitation 2.43 7.74  
Since 1 July precipitation 13.91  
Snow  
Snow 0.00 in - - ()
Month to date snowfall 0.0  
Year to date snowfall 0.0  
Snow Depth 0.00 in    
Sea Level Pressure  
Sea Level Pressure 30.08 in    
Wind  
Wind Speed 1 mph (SSW)    
Max Wind Speed 10 mph    
Max Gust Speed 14 mph    
Visibility 9 miles    
Events      
T = Trace of Precipitation, MM = Missing Value Source: NWS Daily Summary

Daily Weather History Graph

Daily Weather History Graph

Search for Another Location

Airport or City:

Trip Planner

Search our weather history database for the weather conditions in past years. The results will help you decide how hot, cold, wet, or windy it might be!

Date:

Astronomy

Mar. 12, 2011 Rise Set
Actual Time 6:06 AM PST 5:57 PM PST
Civil Twilight 5:41 AM PST 6:22 PM PST
Nautical Twilight 5:12 AM PST 6:51 PM PST
Astronomical Twilight 4:43 AM PST 7:20 PM PST
Moon 10:36 AM PST (3/12) 12:31 AM PST (3/12)
Length of Visible Light 12h 40m
Length of Day
11h 50m
Waxing Crescent, 48% of the Moon is Illuminated
Mar 12
Waxing Crescent
Mar 12
First Quarter
Mar 19
Full
Mar 26
Last Quarter
Apr 3
New

Hourly Weather History & Observations

Time (PST) Temp. Dew Point Humidity Pressure Visibility Wind Dir Wind Speed Gust Speed Precip Events Conditions
12:42 AM 53.6 °F 51.8 °F 94% 30.07 in 8.0 mi Calm Calm - N/A   Mostly Cloudy
12:53 AM 54.0 °F 51.1 °F 90% 30.07 in 8.0 mi Calm Calm - N/A   Mostly Cloudy
1:15 AM 53.6 °F 51.8 °F 94% 30.07 in 7.0 mi Calm Calm - N/A   Partly Cloudy
1:24 AM 53.6 °F 51.8 °F 94% 30.07 in 7.0 mi Calm Calm - N/A   Mostly Cloudy
1:53 AM 54.0 °F 52.0 °F 93% 30.06 in 6.0 mi Calm Calm - N/A   Overcast
2:38 AM 53.6 °F 51.8 °F 94% 30.05 in 6.0 mi ESE 3.5 mph - N/A   Overcast
2:53 AM 55.0 °F 52.0 °F 89% 30.04 in 6.0 mi Calm Calm - N/A   Overcast
3:53 AM 54.0 °F 51.1 °F 90% 30.04 in 9.0 mi SE 3.5 mph - N/A   Overcast
4:32 AM 53.6 °F 50.0 °F 88% 30.05 in 10.0 mi Calm Calm - N/A   Scattered Clouds
4:53 AM 53.1 °F 50.0 °F 89% 30.06 in 10.0 mi Calm Calm - N/A   Clear
6:30 AM 51.8 °F 48.2 °F 88% 30.08 in 9.0 mi Calm Calm - N/A   Mostly Cloudy
6:53 AM 54.0 °F 50.0 °F 86% 30.09 in 9.0 mi Calm Calm - N/A   Overcast
7:53 AM 55.9 °F 50.0 °F 80% 30.10 in 10.0 mi Calm Calm - N/A   Overcast
8:53 AM 57.9 °F 50.0 °F 75% 30.11 in 9.0 mi Calm Calm - N/A   Overcast
9:53 AM 60.1 °F 50.0 °F 69% 30.12 in 9.0 mi Calm Calm - N/A   Overcast
10:53 AM 60.1 °F 50.0 °F 69% 30.13 in 10.0 mi Variable 3.5 mph - N/A   Overcast
11:53 AM 61.0 °F 51.1 °F 70% 30.12 in 10.0 mi Calm Calm - N/A   Overcast
12:53 PM 63.0 °F 48.9 °F 60% 30.08 in 10.0 mi SW 3.5 mph - N/A   Mostly Cloudy
1:53 PM 64.9 °F 50.0 °F 58% 30.06 in 10.0 mi Variable 6.9 mph - N/A   Clear
2:53 PM 64.0 °F 50.0 °F 60% 30.05 in 10.0 mi SW 4.6 mph - N/A   Partly Cloudy
3:53 PM 64.9 °F 50.0 °F 58% 30.04 in 10.0 mi Variable 6.9 mph - N/A   Partly Cloudy
4:53 PM 62.1 °F 50.0 °F 65% 30.05 in 10.0 mi Variable 4.6 mph - N/A   Clear
5:53 PM 61.0 °F 50.0 °F 67% 30.06 in 10.0 mi West 5.8 mph - N/A   Clear
6:53 PM 57.9 °F 48.9 °F 72% 30.07 in 10.0 mi Calm Calm - N/A   Clear
7:53 PM 57.0 °F 48.9 °F 74% 30.08 in 10.0 mi Calm Calm - N/A   Clear
8:53 PM 55.9 °F 48.0 °F 75% 30.10 in 10.0 mi Calm Calm - N/A   Clear
9:53 PM 55.9 °F 48.9 °F 77% 30.10 in 10.0 mi Calm Calm - N/A   Clear
10:53 PM 53.1 °F 48.0 °F 83% 30.11 in 10.0 mi Calm Calm - N/A   Clear
11:53 PM 53.1 °F 48.0 °F 83% 30.11 in 10.0 mi Calm Calm - N/A   Clear